Berlin, NH

8:52 PM EDT on May 23, 2017 (GMT -0400)
Berlin Municipal

Weather History for KBML - December, 2000

Change the Weather History Date:

Sunday, December 17, 2000

  Actual Average Record
Temperature  
Mean Temperature 45 °F -  
Max Temperature 55 °F 28 °F 55 °F (2000)
Min Temperature 35 °F 8 °F -25 °F (2013)
Degree Days  
Heating Degree Days 20    
Moisture  
Dew Point 41 °F    
Average Humidity 94    
Maximum Humidity 100    
Minimum Humidity 83    
Precipitation  
Precipitation 1.31 in - - ()
Sea Level Pressure  
Sea Level Pressure 29.49 in    
Wind  
Wind Speed 8 mph (SSW)    
Max Wind Speed 21 mph    
Max Gust Speed 31 mph    
Visibility 6 miles    
Events Rain , Thunderstorm    
Averages and records for this station are not official NWS values.
T = Trace of Precipitation, MM = Missing Value Source: NWS Daily Summary

Daily Weather History Graph

Daily Weather History Graph

Search for Another Location

Airport or City:

Trip Planner

Search our weather history database for the weather conditions in past years. The results will help you decide how hot, cold, wet, or windy it might be!

Date:

Astronomy

Dec. 17, 2000 Rise Set
Actual Time 7:16 AM EST 4:05 PM EST
Civil Twilight 6:42 AM EST 4:39 PM EST
Nautical Twilight 6:05 AM EST 5:16 PM EST
Astronomical Twilight 5:30 AM EST 5:51 PM EST
Moon 11:38 PM EST (12/17) 12:05 PM EST (12/17)
Length of Visible Light 9h 56m
Length of Day
8h 49m
Waning Gibbous, 54% of the Moon is Illuminated
Dec 17
Waning Gibbous
Dec 17
Last Quarter
Dec 25
New
Jan 2
First Quarter
Jan 9
Full

Hourly Weather History & Observations

Time (EST) Temp. Windchill Dew Point Humidity Pressure Visibility Wind Dir Wind Speed Gust Speed Precip Events Conditions
12:52 AM 37.9 °F 32.7 °F 35.1 °F 89% 30.17 in 10.0 mi Variable 6.9 mph - N/A   Overcast
1:52 AM 39.0 °F 32.8 °F 35.1 °F 86% 30.14 in 10.0 mi South 9.2 mph 19.6 mph 0.00 in   Overcast
2:52 AM 39.0 °F 31.0 °F 35.1 °F 86% 30.10 in 10.0 mi SE 13.8 mph 19.6 mph 0.00 in   Overcast
3:07 AM 39.2 °F 33.6 °F 35.6 °F 87% 30.04 in 10.0 mi South 8.1 mph - N/A   Overcast
3:52 AM 37.9 °F 32.1 °F 36.0 °F 93% 30.06 in 8.0 mi SW 8.1 mph - 0.00 in Rain Light Rain
4:52 AM 37.9 °F 35.5 °F 35.1 °F 89% 30.00 in 10.0 mi Variable 3.5 mph - 0.01 in   Overcast
5:52 AM 36.0 °F 29.0 °F 35.1 °F 97% 29.95 in 10.0 mi North 9.2 mph - N/A   Overcast
6:52 AM 35.1 °F 31.0 °F 34.0 °F 96% 29.90 in 10.0 mi NW 4.6 mph - N/A   Overcast
7:01 AM 35.6 °F - 35.6 °F 100% 29.86 in 10.0 mi Calm Calm - N/A   Overcast
7:52 AM 35.1 °F 29.3 °F 34.0 °F 96% 29.84 in 4.0 mi North 6.9 mph - 0.03 in Rain Rain
8:05 AM 35.6 °F 32.8 °F 33.8 °F 93% 29.80 in 5.0 mi North 3.5 mph - 0.02 in Rain , Thunderstorm Light Thunderstorms and Rain
8:20 AM 35.6 °F 32.8 °F 35.6 °F 100% 29.79 in 7.0 mi Variable 3.5 mph - 0.02 in Rain Light Rain
8:52 AM 35.1 °F 28.6 °F 35.1 °F 100% 29.78 in 4.0 mi North 8.1 mph - 0.04 in Rain Light Rain
9:12 AM 35.6 °F 29.2 °F 35.6 °F 100% 29.73 in 7.0 mi NNW 8.1 mph - 0.01 in Rain Light Rain
9:22 AM 35.6 °F 30.7 °F 35.6 °F 100% 29.74 in 4.0 mi North 5.8 mph - 0.02 in Rain Light Rain
9:52 AM 36.0 °F - 36.0 °F 100% 29.75 in 7.0 mi Calm Calm - 0.03 in Rain Light Rain
10:36 AM 37.4 °F 33.8 °F 37.4 °F 100% 29.64 in 7.0 mi NW 4.6 mph - 0.01 in Rain Light Rain
10:52 AM 37.9 °F 30.9 °F 37.0 °F 97% 29.67 in 9.0 mi North 10.4 mph - 0.01 in Rain Light Rain
11:11 AM 37.4 °F 33.8 °F 37.4 °F 100% 29.61 in 6.0 mi Variable 4.6 mph - 0.00 in Rain Light Rain
11:44 AM 39.2 °F 33.6 °F 39.2 °F 100% 29.57 in 4.0 mi WNW 8.1 mph - 0.02 in Rain Rain
11:52 AM 41.0 °F - 39.9 °F 96% 29.60 in 7.0 mi Calm Calm - 0.03 in Rain Light Rain
12:32 PM 44.6 °F 41.4 °F 42.8 °F 93% 29.54 in 4.0 mi West 5.8 mph - 0.02 in Rain , Thunderstorm Rain
12:39 PM 44.6 °F 41.4 °F 42.8 °F 93% 29.54 in 1.8 mi SSW 5.8 mph - 0.05 in Rain , Thunderstorm Rain
12:45 PM 44.6 °F 40.7 °F 42.8 °F 93% 29.51 in 1.2 mi Variable 6.9 mph - 0.09 in Rain , Thunderstorm Heavy Rain
12:52 PM 43.0 °F 39.5 °F 43.0 °F 100% 29.51 in 2.0 mi NNE 5.8 mph - 0.12 in Rain , Thunderstorm Rain
1:00 PM 42.8 °F 38.6 °F 42.8 °F 100% 29.53 in 1.8 mi WSW 6.9 mph - 0.03 in Rain Light Rain
1:05 PM 42.8 °F - 42.8 °F 100% 29.51 in 0.8 mi Calm Calm - 0.10 in Rain Heavy Rain
1:13 PM 44.6 °F 40.2 °F 42.8 °F 93% 29.49 in 1.2 mi ESE 8.1 mph - 0.13 in Rain Rain
1:18 PM 46.4 °F 42.4 °F 44.6 °F 93% 29.50 in 2.0 mi SE 8.1 mph - 0.15 in Rain Rain
1:23 PM 44.6 °F 43.1 °F 44.6 °F 100% 29.50 in 1.8 mi Variable 3.5 mph - 0.17 in Rain Rain
1:35 PM 42.8 °F - 42.8 °F 100% 29.48 in 0.8 mi Calm Calm - 0.21 in Rain Rain
1:52 PM 45.0 °F 43.5 °F 44.1 °F 97% 29.47 in 3.0 mi West 3.5 mph - 0.24 in Rain Light Rain
2:52 PM 48.9 °F - 46.9 °F 93% 29.46 in 8.0 mi SE 12.7 mph - 0.05 in Rain Light Rain
3:52 PM 55.0 °F - 51.1 °F 86% 29.39 in 7.0 mi SSE 18.4 mph 26.5 mph 0.01 in Rain Light Rain
4:52 PM 53.1 °F - 51.1 °F 93% 29.34 in 7.0 mi SE 15.0 mph 21.9 mph 0.12 in Rain Light Rain
5:52 PM 54.0 °F - 52.0 °F 93% 29.29 in 5.0 mi SSE 16.1 mph 23.0 mph 0.08 in Rain Light Rain
6:27 PM 55.4 °F - 51.8 °F 88% 29.22 in 3.0 mi SSE 11.5 mph - 0.15 in Rain Rain
6:43 PM 55.4 °F - 51.8 °F 88% 29.21 in 4.0 mi SSE 15.0 mph - 0.21 in Rain Rain
6:52 PM 55.0 °F - 52.0 °F 89% 29.22 in 4.0 mi SSE 19.6 mph 25.3 mph 0.23 in Rain Rain
7:52 PM 55.0 °F - 52.0 °F 89% 29.10 in 5.0 mi SSE 16.1 mph 25.3 mph 0.06 in Rain Rain
8:35 PM 55.4 °F - 51.8 °F 88% 29.04 in 7.0 mi SSE 13.8 mph - 0.06 in Rain Light Rain
8:52 PM 55.0 °F - 51.1 °F 86% 29.03 in 10.0 mi SSE 17.3 mph 26.5 mph 0.07 in Rain Light Rain
9:52 PM 54.0 °F - 48.9 °F 83% 28.93 in 10.0 mi SE 18.4 mph 26.5 mph 0.01 in   Mostly Cloudy
10:33 PM 51.8 °F - 48.2 °F 88% 28.86 in 10.0 mi SE 19.6 mph 26.5 mph N/A   Overcast
10:52 PM 52.0 °F - 48.9 °F 89% 28.82 in 10.0 mi SE 18.4 mph 23.0 mph 0.00 in Rain Light Rain
11:13 PM 42.8 °F 34.8 °F 39.2 °F 87% 28.82 in 4.0 mi West 17.3 mph 25.3 mph 0.03 in Rain Heavy Rain
11:22 PM 39.2 °F 29.3 °F 37.4 °F 93% 28.84 in 2.5 mi West 20.7 mph 29.9 mph 0.09 in Rain Rain
11:40 PM 35.6 °F 26.2 °F 33.8 °F 93% 28.87 in 3.0 mi WNW 15.0 mph 31.1 mph 0.15 in Rain , Thunderstorm Rain
11:43 PM 35.6 °F 25.9 °F 33.8 °F 93% 28.87 in 4.0 mi WNW 16.1 mph 25.3 mph 0.16 in Rain , Thunderstorm Rain
11:52 PM 35.1 °F 27.4 °F 33.1 °F 92% 28.94 in 5.0 mi West 10.4 mph 21.9 mph 0.17 in Rain , Thunderstorm Light Rain